,

(GMT )
Old Crow

Weather History for CZOC - November, 2013

Change the Weather History Date:

Tuesday, November 5, 2013

  Actual Average Record
Temperature  
Mean Temperature 10 °F -  
Max Temperature 21 °F - - ()
Min Temperature -2 °F - - ()
Degree Days  
Heating Degree Days 56    
Moisture  
Dew Point 6 °F    
Average Humidity 86    
Maximum Humidity 94    
Minimum Humidity 73    
Precipitation  
Precipitation 0.00 in - - ()
Sea Level Pressure  
Sea Level Pressure 29.84 in    
Wind  
Wind Speed 5 mph ()    
Max Wind Speed 26 mph    
Max Gust Speed 38 mph    
T = Trace of Precipitation, MM = Missing Value Source: Averaged Metar Reports

Daily Weather History Graph

Daily Weather History Graph

Search for Another Location

Airport or City:

Trip Planner

Search our weather history database for the weather conditions in past years. The results will help you decide how hot, cold, wet, or windy it might be!

Date:

Astronomy

Nov. 05, 2013 Rise Set
Actual Time 9:44 AM PST 4:19 PM PST
Civil Twilight 8:38 AM PST 5:26 PM PST
Nautical Twilight 7:30 AM PST 6:33 PM PST
Astronomical Twilight 6:27 AM PST 7:36 PM PST
Moon 1:12 PM PST (11/5) 5:25 PM PST (11/5)
Length of Visible Light 8h 48m
Length of Day
6h 34m
Waxing Crescent, 7% of the Moon is Illuminated
Nov 5
Waxing Crescent
Nov 9
First Quarter
Nov 17
Full
Nov 25
Last Quarter
Dec 2
New

Hourly Weather History & Observations

Time (PST) Temp. Windchill Dew Point Humidity Pressure Visibility Wind Dir Wind Speed Gust Speed Precip Events Conditions
12:00 AM -2.0 °F - -6.0 °F 83% 29.61 in - NE 1.2 mph - N/A   Unknown
1:00 AM -1.8 °F - -5.8 °F 83% 29.62 in - Calm Calm - N/A   Unknown
2:00 AM -2.0 °F - -6.0 °F 83% 29.62 in - Calm Calm - N/A   Unknown
3:00 AM -1.1 °F - -4.9 °F 84% 29.63 in - Variable 1.2 mph - N/A   Unknown
4:00 AM -2 °F - -6 °F 74% 29.64 in - Calm Calm - -  
4:00 AM -2.2 °F - -6.2 °F 83% 29.64 in - Calm Calm - N/A   Unknown
5:00 AM -1.8 °F - -5.8 °F 83% 29.64 in - North 1.2 mph - N/A   Unknown
6:00 AM 0.3 °F - -3.3 °F 85% 29.65 in - Calm Calm - N/A   Unknown
7:00 AM 3.0 °F - -0.2 °F 86% 29.67 in - Calm Calm - N/A   Unknown
8:00 AM 5.2 °F - 2.3 °F 88% 29.69 in - Calm Calm - N/A   Unknown
9:00 AM 7.0 °F - 4.1 °F 88% 29.72 in - Calm Calm - N/A   Unknown
10:00 AM 9.1 °F - 6.6 °F 89% 29.74 in - Calm Calm - N/A   Unknown
11:00 AM 11.1 °F - 8.8 °F 90% 29.77 in - Variable 1.2 mph - N/A   Unknown
12:00 PM 12.9 °F - 10.6 °F 90% 29.82 in - WSW 1.2 mph - N/A   Unknown
1:00 PM 13.6 °F - 11.5 °F 91% 29.85 in - West 2.3 mph - N/A   Unknown
2:00 PM 15.1 °F - 12.9 °F 91% 29.87 in - WSW 1.2 mph - N/A   Unknown
3:00 PM 21.0 °F 9.9 °F 19.6 °F 94% 29.90 in - NE 10.4 mph - N/A   Unknown
4:00 PM 20 °F - 18 °F 91% 29.92 in - NE 16.1 mph - -  
4:00 PM 20.1 °F 5.9 °F 18.5 °F 93% 29.92 in - NE 16.1 mph 24.2 mph N/A   Unknown
5:00 PM 18.5 °F 2.4 °F 16.7 °F 93% 29.96 in - ENE 19.6 mph - N/A   Unknown
6:00 PM 18.0 °F 2.6 °F 15.6 °F 91% 30.00 in - NE 17.3 mph 27.6 mph N/A   Unknown
7:00 PM 16.7 °F -1.8 °F 12.2 °F 82% 30.04 in - NE 25.3 mph 38.0 mph N/A   Unknown
8:00 PM 16.0 °F -2.5 °F 11.7 °F 83% 30.08 in - NE 24.2 mph 31.1 mph N/A   Unknown
9:00 PM 15.4 °F -2.0 °F 10.8 °F 82% 30.11 in - NE 20.7 mph 28.8 mph N/A   Unknown
10:00 PM 15 °F - 10 °F 73% 30.13 in - NE 20.7 mph - -  
10:00 PM 15.3 °F -3.0 °F 10.2 °F 80% 30.14 in - NNE 23.0 mph 34.5 mph N/A   Unknown
11:00 PM 14.7 °F -4.9 °F 9.5 °F 80% 30.17 in - NE 26.5 mph 32.2 mph N/A   Unknown